Find Starlink 11441

NORAD ID: 62413 Int'l Des: 2024-249 Owner: SPXS Country: US Constellation: starlink operational
LEOCIRCULAR

現在のビュー

3D地球を読み込み中...

About Starlink 11441

Starlink 11441 (NORAD 62413) is a starlink constellation satellite (v2 mini d2c) launched Dec 23, 2024 by SPXS of US. It operates in LEO, CIRCULAR orbit with a mass of 960.00 kg.

Starlink 11441について

説明を読み込み中...

次回通過

Passes for default location (London). Set your location on the main map for personalized predictions.

高度履歴

Loading altitude history...

軌道要素

1 62413U 24249E 26169.27723654 .00125167 00000-0 96204-3 0 9993
2 62413 43.0019 281.0628 0002458 270.5819 89.4767 15.70895047 85306
Epoch: Jun 18, 2026 • Age: 9 hours

現在のステータス

高度 367.7 km
速度 7.69 km/s
衛星直下点 -43.13°S, 47.88°E
打ち上げ日 Dec 23, 2024
運用期間 1.4 years
タイプ internet

技術仕様

分類 Payload
質量 960.00 kg
乾燥質量 910.00 kg
総質量 960.00 kg
長さ 0.30 m
直径 4.10 m
スパン 29.00 m
形状 Box + pan
製造者 SPXS
バスタイプ Starlink V2MD
フェーズステータス In Orbit
所有者/国 SPXS/US

Most Searched